Regional Weather Roundup
Issued by NWS

Home | Current Version | Previous Version | Text Only | Print | Product List | Glossary On
Versions: 1 2 3 4 5 6 7 8 9 10 11 12 13 14 15 16 17 18 19 20 21 22 23 24 25 26 27 28 29 30 31 32 33 34 35 36 37 38 39 40 41 42 43 44 45 46 47 48 49 50
000
ASUS46 KLOX 201212
RWRCA

SOUTHERN CALIFORNIA WEATHER ROUNDUP
NATIONAL WEATHER SERVICE OXNARD CALIFORNIA
500 AM PDT MON OCT 20 2014

NOTE: "FAIR" INDICATES FEW OR NO CLOUDS BELOW 12,000 FEET WITH NO
SIGNIFICANT WEATHER AND/OR OBSTRUCTIONS TO VISIBILITY.

  -  STATIONS PRECEEDED BY AN ASTERISK (*) ARE NOT NWS OR FAA
     STATIONS AND ARE NOT SUBJECT TO NWS AND FAA QUALITY CONTROL.

CAZ041-042-087-201300-
LA AND ORANGE COUNTY COASTAL AREAS


CITY           SKY/WX    TMP DP  RH WIND       PRES   REMARKS
L.A. DOWNTOWN  MOCLDY    63  59  87 CALM      29.88S
L.A. AIRPORT   CLOUDY    66  62  87 W3        29.89R
LONG BEACH     CLOUDY    67  62  84 CALM      29.89R

CITY           SKY/WX    TMP DP  RH WIND       PRES   REMARKS
AVALON           N/A     59 N/A N/A MISG        N/A
FULLERTON      CLEAR     63  58  83 CALM      29.88R
*GETTY CENTER    N/A     59  59 100 SW3         N/A
HAWTHORNE      CLOUDY    67  62  84 CALM      29.89R
*LEO CARRILLO    N/A     64  58  81 N7          N/A
*LOS ALAMITOS  FOG       61  61 100 CALM      29.89R VSB 1/2
*REDONDO BEACH   N/A     62  58  88 CALM      29.88R
SANTA ANA      CLOUDY    70  61  73 CALM      29.88S
STA MONICA APT CLOUDY    66  59  78 CALM      29.89R
*STA MON PIER    N/A     66  62  86 CALM      29.88R
*UCLA            N/A     63  59  88 CALM      29.87R

$$

CAZ547-548-048-201300-
LA COUNTY VALLEYS AND INLAND EMPIRE


CITY           SKY/WX    TMP DP  RH WIND       PRES   REMARKS
BURBANK        CLOUDY    61  59  93 NW3       29.89S FOG
VAN NUYS       CLOUDY    62  60  93 CALM      29.89S FOG

CITY           SKY/WX    TMP DP  RH WIND       PRES   REMARKS
CORONA AIRPORT SUNNY     53  51  93 CALM      29.90S FOG
*CHATSWORTH      N/A     60  58  94 N2        29.86S
CHINO          CLEAR     58  56  93 E3        29.91R FOG
*CLAREMONT       N/A     55  51  87 CALM        N/A
MARCH AFB      CLEAR     56  55  97 W1        29.91R
ONTARIO        CLEAR     60  58  92 E3        29.89S
*PASADENA        N/A     63  57  82 CALM        N/A
RIVERSIDE      CLEAR     60  56  86 CALM      29.90R
SAN BERNARDINO NOT AVBL
*SAN RAFAEL HI   N/A     61  61 100 CALM        N/A
*SAUGUS          N/A     55  50  84 SE2         N/A
*WHITEMAN AP   NOT AVBL
*WOODLAND HILL   N/A     63  59  88 S1          N/A

$$

CAZ054-055-201300-
LA AND SAN BERNARDINO COUNTY MOUNTAINS


CITY           SKY/WX    TMP DP  RH WIND       PRES   REMARKS
*ACTON           N/A     51  45  80 N5          N/A
*BIG BEAR AIRP SUNNY     32  28  86 CALM      30.16R
*BIG PINES       N/A     52  36  54 CALM        N/A
*CHILAO          N/A     59  37  44 E2          N/A
MT WILSON NWS    N/A     57  34  41 W5          N/A
SANDBERG       CLEAR     62  35  36 W8        30.02S
*WARM SPRINGS    N/A     60  46  59 SW5         N/A

$$

CAZ028-029-059-060-099-201300-
ANTELOPE VALLEY AND SURROUNDING AREAS


CITY           SKY/WX    TMP DP  RH WIND       PRES   REMARKS
LANCASTER      CLEAR     54  36  50 CALM      29.92R
PALMDALE       CLEAR     59  41  51 S5        29.92S

CITY           SKY/WX    TMP DP  RH WIND       PRES   REMARKS
29 PALMS       CLEAR     64  39  39 W10       29.96R
BARSTOW/DAGGET CLEAR     64  44  48 W9        29.89S
BISHOP         CLEAR     44  31  60 N6        29.96R
CHINA LAKE     CLEAR     57  38  48 SW6       29.89S
EDWARDS AFB    CLEAR     54  40  58 CALM      29.90S
MOJAVE         FAIR      59  37  44 CALM      29.93S
NEEDLES        CLEAR     71  43  36 W6        29.84R
VICTORVILLE    CLEAR     55  45  67 S7        29.94S

$$

CAZ039-040-201300-
VENTURA AND SANTA BARBARA COUNTY COAST


CITY           SKY/WX    TMP DP  RH WIND       PRES   REMARKS
CAMARILLO      CLOUDY    64  59  83 CALM      29.89R
NWS OXNARD       N/A     62  59  88 CALM      29.89R
OXNARD AIRPORT CLOUDY    62  60  93 NE5       29.89S FOG
*POINT MUGU    MOCLDY    66  60  81 NE6         N/A
SBA APT/GOLETA CLEAR     56  54  93 CALM      29.88R
*SANTA BARBARA   N/A     65  59  82 CALM      29.96S
*VENTURA         N/A     60  58  93 NE3       29.93S

$$

CAZ044-045-201300-
VENTURA COUNTY VALLEYS


CITY           SKY/WX    TMP DP  RH WIND       PRES   REMARKS
*SIMI VALLEY     N/A     55  53  93 CALM      29.87R
*OJAI            N/A     49  47  92 CALM      29.86R
*FILLMORE        N/A     59  57  92 CALM      29.80S

$$

CAZ053-201300-
VENTURA COUNTY MOUNTAINS


CITY           SKY/WX    TMP DP  RH WIND       PRES   REMARKS
*LOCKWOOD VLY    N/A     36  28  75 MISG        N/A
*ROSE VALLEY     N/A     37  36  93 MISG        N/A

$$

CAZ034-035-036-201300-
CENTRAL COAST AND SANTA YNEZ VALLEY


CITY           SKY/WX    TMP DP  RH WIND       PRES   REMARKS
SAN LUIS OBISP CLOUDY    62  56  80 N3        29.93R
SANTA MARIA    CLOUDY    63  56  78 MISG      29.94R

CITY           SKY/WX    TMP DP  RH WIND       PRES   REMARKS
*CAL POLY SLO    N/A     61  59  94 W5          N/A
*LOMPOC        CLOUDY    63  54  72 CALM      29.93S
*PISMO BEACH     N/A     62  58  87 CALM      29.93S
*SANTA YNEZ    CLOUDY    59  54  82 CALM      29.93S

$$

CAZ037-038-051-201300-
SAN LUIS OBISPO COUNTY INTERIOR AND CUYAMA VALLEY


CITY           SKY/WX    TMP DP  RH WIND       PRES   REMARKS
*CUYAMA          N/A     52  41  65 W1        29.88R
PASO ROBLES    CLOUDY    56  52  86 CALM      29.93S

$$

CAZ032-033-061-201300-
SOUTHERN DESERTS


CITY           SKY/WX    TMP DP  RH WIND       PRES   REMARKS
BLYTHE         CLEAR     67  47  48 CALM      29.81R
IMPERIAL       CLEAR     69  53  56 S3        29.78R
PALM SPRINGS   CLEAR     70  55  59 CALM      29.82S
THERMAL        CLEAR     62  51  67 CALM      29.77R

$$

ELSEWHERE ACROSS THE WESTERN UNITED STATES AND MEXICO


CITY           SKY/WX    TMP DP  RH WIND       PRES   REMARKS
DENVER, CO     PTCLDY    47  36  65 SW13      30.16S
GRAND CANYON,  CLEAR     38  34  85 NE8       30.16F WCI  32
HONOLULU, HI   MOCLDY    79  72  78 NE12      29.96F
KAHULUI, MAUI  CLEAR     79  70  73 NE17      29.96F
LAKE TAHOE, CA CLEAR     47  28  47 SW6       30.03S
LAS VEGAS, NV  CLEAR     67  38  34 SW6       29.86R
MAMMOTH LAKES, FAIR      36  28  75 CALM      30.11S
MEXICO CITY, M LGT RAIN  57  54  88 CALM      30.19R
PHOENIX, AZ    CLEAR     68  57  68 CALM      29.87R
PORTLAND, OR   CLOUDY    61  58  90 S5        29.74S
RENO, NV       CLEAR     47  34  60 CALM      29.96F
SALT LAKE CITY PTCLDY    50  39  66 SE7       30.03S
SAN DIEGO, CA  MOCLDY    67  60  78 CALM      29.90R
SAN FRANCISCO, PTCLDY    63  57  81 W5        29.91S
SAN JOSE, CA   CLOUDY    62  56  80 CALM      29.91S
SEATTLE, WA    CLOUDY    58  56  93 SE8       29.70F
TIJUANA, MEX   CLOUDY    61  57  88 CALM      29.92R

$$

STATION/POSITION TIME  TEMP    WIND        PRES    VSBY  WAVE
                       AIR SEA DIR/SP/G                  HT/PER
                 (UTC) (F)     (DEG/KT/KT) (MB)    (MI)  (FT/S)
POINT ARGUELLO B NOT AVBL
WEST SANTA BARBA 1200   65 68  330/ 14/ 19 1011.8R         5/10
POINT CONCEPTION NOT AVBL
EAST SANTA BARBA 1200   67 68  290/  6/  8 1012.2R
SANTA MONICA BAY 1200   67 72  270/  8/ 10 1011.7R         5/11



USA.gov is the U.S. government's official web portal to all federal, state and local government web resources and services.